| time (UTC) | temp F | wind direction | speed MPH | gust MPH | rain 1hr in | rain 24hr in | rain mn in | humidity % | barometer mb |
| 20260507060043 | 59 | 285 | 15.0 | 25.0 | 0.00 | 0.00 | 0.00 | 64 | 1014.9 |
| 20260507054542 | 59 | 255 | 18.0 | 26.0 | 0.00 | 0.00 | 0.00 | 64 | 1014.8 |
| 20260507053042 | 59 | 269 | 16.0 | 25.0 | 0.00 | 0.00 | 0.00 | 64 | 1015.0 |
| 20260507051542 | 59 | 248 | 16.0 | 26.0 | 0.00 | 0.00 | 0.00 | 63 | 1015.1 |
| 20260507050042 | 60 | 265 | 18.0 | 27.0 | 0.00 | 0.00 | 0.00 | 62 | 1015.2 |
| 20260507044546 | 60 | 275 | 17.0 | 26.0 | 0.00 | 0.00 | 0.00 | 61 | 1015.2 |
| 20260507043054 | 61 | 263 | 16.0 | 26.0 | 0.00 | 0.00 | 0.00 | 59 | 1015.1 |
| 20260507041537 | 61 | 269 | 17.0 | 27.0 | 0.00 | 0.00 | 0.00 | 57 | 1015.0 |
| 20260507040035 | 62 | 290 | 19.0 | 25.0 | 0.00 | 0.00 | 0.00 | 56 | 1014.9 |
| 20260507034536 | 63 | 265 | 19.0 | 30.0 | 0.00 | 0.00 | 0.00 | 54 | 1014.7 |
| 20260507033035 | 63 | 255 | 19.0 | 32.0 | 0.00 | 0.00 | 0.00 | 52 | 1014.3 |
| 20260507031534 | 65 | 270 | 18.0 | 29.0 | 0.00 | 0.00 | 0.00 | 49 | 1014.1 |
| 20260507030033 | 66 | 259 | 20.0 | 28.0 | 0.00 | 0.00 | 0.00 | 48 | 1014.0 |
| 20260507024532 | 67 | 293 | 15.0 | 25.0 | 0.00 | 0.00 | 0.00 | 45 | 1014.2 |
| 20260507023035 | 68 | 271 | 18.0 | 24.0 | 0.00 | 0.00 | 0.00 | 42 | 1014.1 |
| 20260507021530 | 69 | 295 | 16.0 | 23.0 | 0.00 | 0.00 | 0.00 | 40 | 1013.9 |
| 20260507020045 | 69 | 301 | 17.0 | 25.0 | 0.00 | 0.00 | 0.00 | 37 | 1013.8 |
| 20260507014533 | 70 | 293 | 11.0 | 22.0 | 0.00 | 0.00 | 0.00 | 37 | 1013.8 |
| 20260507013029 | 70 | 294 | 14.0 | 24.0 | 0.00 | 0.00 | 0.00 | 35 | 1013.8 |
| 20260507011541 | 71 | 303 | 15.0 | 25.0 | 0.00 | 0.00 | 0.00 | 35 | 1013.7 |
| 20260507010034 | 71 | 282 | 9.0 | 15.0 | 0.00 | 0.00 | 0.00 | 36 | 1013.9 |
| 20260507004528 | 72 | 294 | 13.0 | 22.0 | 0.00 | 0.00 | 0.00 | 33 | 1013.7 |
| 20260507003028 | 73 | 294 | 16.0 | 26.0 | 0.00 | 0.00 | 0.00 | 32 | 1013.3 |
| 20260507001600 | 75 | 295 | 11.0 | 21.0 | 0.00 | 0.00 | 0.00 | 32 | 1013.1 |
| 20260507000031 | 76 | 297 | 15.0 | 23.0 | 0.00 | 0.00 | 0.00 | 30 | 1013.2 |
| 20260506234525 | 77 | 300 | 13.0 | 22.0 | 0.00 | 0.00 | 0.00 | 30 | 1013.3 |
| 20260506233026 | 77 | 272 | 11.0 | 22.0 | 0.00 | 0.00 | 0.00 | 30 | 1013.2 |
| 20260506231525 | 77 | 293 | 16.0 | 23.0 | 0.00 | 0.00 | 0.00 | 28 | 1013.1 |
| 20260506230030 | 77 | 290 | 16.0 | 27.0 | 0.00 | 0.00 | 0.00 | 29 | 1013.3 |
| 20260506224522 | 76 | 302 | 17.0 | 23.0 | 0.00 | 0.00 | 0.00 | 31 | 1013.4 |
| 20260506223029 | 77 | 291 | 17.0 | 26.0 | 0.00 | 0.00 | 0.00 | 30 | 1013.3 |
| 20260506221521 | 78 | 294 | 16.0 | 23.0 | 0.00 | 0.00 | 0.00 | 30 | 1013.5 |
| 20260506220019 | 78 | 291 | 13.0 | 23.0 | 0.00 | 0.00 | 0.00 | 31 | 1013.5 |
| 20260506214518 | 78 | 273 | 14.0 | 24.0 | 0.00 | 0.00 | 0.00 | 30 | 1013.5 |
| 20260506213018 | 78 | 297 | 14.0 | 20.0 | 0.00 | 0.00 | 0.00 | 30 | 1013.5 |
| 20260506211520 | 77 | 275 | 17.0 | 22.0 | 0.00 | 0.00 | 0.00 | 31 | 1013.6 |
| 20260506210029 | 78 | 281 | 15.0 | 22.0 | 0.00 | 0.00 | 0.00 | 35 | 1013.6 |
| 20260506204513 | 78 | 289 | 15.0 | 23.0 | 0.00 | 0.00 | 0.00 | 34 | 1013.5 |
| 20260506203012 | 78 | 284 | 10.0 | 18.0 | 0.00 | 0.00 | 0.00 | 35 | 1013.5 |
| 20260506201516 | 79 | 297 | 13.0 | 18.0 | 0.00 | 0.00 | 0.00 | 33 | 1013.5 |
| 20260506200009 | 78 | 267 | 10.0 | 21.0 | 0.00 | 0.00 | 0.00 | 34 | 1013.4 |
| 20260506194508 | 78 | 293 | 9.0 | 25.0 | 0.00 | 0.00 | 0.00 | 39 | 1013.5 |
| 20260506193009 | 78 | 289 | 9.0 | 19.0 | 0.00 | 0.00 | 0.00 | 40 | 1013.5 |
| 20260506191510 | 77 | 290 | 13.0 | 19.0 | 0.00 | 0.00 | 0.00 | 39 | 1013.7 |
| 20260506190003 | 77 | 278 | 11.0 | 16.0 | 0.00 | 0.00 | 0.00 | 37 | 1013.7 |
| 20260506184600 | 76 | 260 | 8.0 | 14.0 | 0.00 | 0.00 | 0.00 | 38 | 1013.8 |
| 20260506183105 | 75 | 281 | 11.0 | 16.0 | 0.00 | 0.00 | 0.00 | 41 | 1014.0 |
| 20260506181557 | 74 | 245 | 9.0 | 13.0 | 0.00 | 0.00 | 0.00 | 44 | 1014.1 |
| 20260506180052 | 72 | 270 | 8.0 | 12.0 | 0.00 | 0.00 | 0.00 | 47 | 1014.2 |
| 20260506174546 | 71 | 284 | 7.0 | 14.0 | 0.00 | 0.00 | 0.00 | 50 | 1014.4 |
| 20260506173047 | 70 | 262 | 9.0 | 15.0 | 0.00 | 0.00 | 0.00 | 52 | 1014.4 |
| 20260506171540 | 68 | 272 | 12.0 | 16.0 | 0.00 | 0.00 | 0.00 | 55 | 1014.6 |
| 20260506170044 | 67 | 288 | 2.0 | 9.0 | 0.00 | 0.00 | 0.00 | 56 | 1014.8 |
| 20260506164554 | 68 | 352 | 6.0 | 15.0 | 0.00 | 0.00 | 0.00 | 55 | 1014.7 |
| 20260506163037 | 67 | 276 | 10.0 | 15.0 | 0.00 | 0.00 | 0.00 | 55 | 1014.6 |
| 20260506161531 | 65 | 267 | 8.0 | 16.0 | 0.00 | 0.00 | 0.00 | 57 | 1014.5 |
| 20260506160033 | 64 | 279 | 9.0 | 16.0 | 0.00 | 0.00 | 0.00 | 58 | 1014.4 |
| 20260506154524 | 62 | 271 | 12.0 | 17.0 | 0.00 | 0.00 | 0.00 | 61 | 1014.6 |
| 20260506153021 | 61 | 270 | 11.0 | 19.0 | 0.00 | 0.00 | 0.00 | 63 | 1014.7 |
| 20260506151519 | 60 | 269 | 11.0 | 19.0 | 0.00 | 0.00 | 0.00 | 64 | 1014.8 |
| 20260506150018 | 60 | 294 | 12.0 | 18.0 | 0.00 | 0.00 | 0.00 | 65 | 1014.9 |
| 20260506144523 | 59 | 290 | 8.0 | 16.0 | 0.00 | 0.00 | 0.00 | 66 | 1014.8 |
| 20260506143014 | 58 | 283 | 12.0 | 17.0 | 0.00 | 0.00 | 0.00 | 67 | 1014.5 |
| 20260506141525 | 57 | 276 | 9.0 | 14.0 | 0.00 | 0.00 | 0.00 | 70 | 1014.6 |
| 20260506140012 | 56 | 268 | 9.0 | 14.0 | 0.00 | 0.00 | 0.00 | 72 | 1014.4 |
| 20260506134509 | 0 | 0.0 | 0.0 | 0.00 | 0.00 | 0.00 | 1014.2 | ||
| 20260506133005 | 0 | 0.0 | 0.0 | 0.00 | 0.00 | 0.00 | 1014.1 | ||
| 20260506131501 | 0 | 0.0 | 0.0 | 0.00 | 0.00 | 0.00 | 1013.8 | ||
| 20260506130057 | 0 | 0.0 | 0.0 | 0.00 | 0.00 | 0.00 | 1013.7 | ||
| 20260506124553 | 0 | 0.0 | 0.0 | 0.00 | 0.00 | 0.00 | 1013.5 | ||
| 20260506123048 | 0 | 0.0 | 0.0 | 0.00 | 0.00 | 0.00 | 1013.4 | ||
| 20260506121553 | 55 | 293 | 10.0 | 14.0 | 0.00 | 0.00 | 0.00 | 78 | 1013.2 |
| 20260506120056 | 54 | 275 | 6.0 | 10.0 | 0.00 | 0.00 | 0.00 | 77 | 1013.2 |
| 20260506114538 | 55 | 280 | 8.0 | 12.0 | 0.00 | 0.00 | 0.00 | 76 | 1013.2 |
| 20260506113036 | 56 | 270 | 9.0 | 13.0 | 0.00 | 0.00 | 0.00 | 74 | 1013.1 |
| 20260506111536 | 56 | 277 | 7.0 | 13.0 | 0.00 | 0.00 | 0.00 | 72 | 1013.0 |
| 20260506110031 | 57 | 276 | 9.0 | 14.0 | 0.00 | 0.00 | 0.00 | 71 | 1012.9 |
| 20260506104538 | 57 | 281 | 8.0 | 14.0 | 0.00 | 0.00 | 0.00 | 72 | 1012.7 |
| 20260506103038 | 56 | 263 | 8.0 | 12.0 | 0.00 | 0.00 | 0.00 | 73 | 1012.6 |
| 20260506101522 | 56 | 250 | 6.0 | 10.0 | 0.00 | 0.00 | 0.00 | 74 | 1012.5 |
| 20260506100022 | 56 | 251 | 5.0 | 8.0 | 0.00 | 0.00 | 0.00 | 74 | 1012.6 |
| 20260506094519 | 57 | 281 | 7.0 | 11.0 | 0.00 | 0.00 | 0.00 | 73 | 1012.4 |
| 20260506093020 | 57 | 261 | 6.0 | 10.0 | 0.00 | 0.00 | 0.00 | 73 | 1012.3 |
| 20260506091517 | 57 | 271 | 6.0 | 11.0 | 0.00 | 0.00 | 0.00 | 73 | 1012.3 |
| 20260506090011 | 58 | 273 | 7.0 | 11.0 | 0.00 | 0.00 | 0.00 | 72 | 1012.2 |
| 20260506084514 | 58 | 280 | 8.0 | 13.0 | 0.00 | 0.00 | 0.00 | 71 | 1012.2 |
| 20260506083005 | 58 | 281 | 10.0 | 16.0 | 0.00 | 0.00 | 0.00 | 70 | 1012.2 |
| 20260506081503 | 59 | 264 | 9.0 | 14.0 | 0.00 | 0.00 | 0.00 | 69 | 1012.0 |
| 20260506080105 | 59 | 264 | 7.0 | 16.0 | 0.00 | 0.00 | 0.00 | 66 | 1012.0 |
| 20260506073053 | 60 | 267 | 8.0 | 13.0 | 0.00 | 0.00 | 0.00 | 63 | 1011.8 |
| 20260506071551 | 60 | 245 | 5.0 | 12.0 | 0.00 | 0.00 | 0.00 | 63 | 1011.8 |
| 20260506061533 | 61 | 276 | 5.0 | 9.0 | 0.00 | 0.00 | 0.00 | 64 | 1011.3 |